Latest Weather Observations for Swan Hill

IDV60801

Issued at 10:05 pm EST Saturday 19 April 2014 (issued every 30 minutes, with the page automatically refreshed every 10 minutes)

About weather observations | Map of weather stations | Latest weather observations for VIC | Other Formats
Station Details ID: 077094 Name: SWAN HILL AERODROME Lat: -35.38 Lon: 143.54 Height: 71.0 m
Data from the previous 72 hours. | See also: Recent months at Swan Hill
Date/Time
EST
Temp
°C
App
Temp
°C
Dew
Point
Rel
Hum
%
Delta-T
°C
Wind Press
QNH
hPa
Press
MSL
hPa
Rain
since 9 am
mm
Dir
 
Spd
km/h
Gust
km/h
Spd
kts
Gust
kts
19/10:00pm 8.6 7.3 4.3 74 1.9 SSW 0 0 0 0 1019.0 - 0.0
19/09:30pm 8.7 7.6 5.1 78 1.6 SSW 0 0 0 0 1019.2 - 0.0
19/09:00pm 9.0 7.9 5.0 76 1.8 CALM 0 0 0 0 1019.1 1019.0 0.0
19/08:30pm 10.4 8.0 4.4 66 2.7 S 6 7 3 4 1019.1 - 0.0
19/08:00pm 10.4 7.9 4.6 67 2.6 SSW 7 9 4 5 1019.1 - 0.0
19/07:30pm 12.1 9.5 4.1 58 3.6 SSW 7 9 4 5 1019.1 - 0.0
19/07:00pm 12.6 10.0 4.2 56 3.8 SSW 7 9 4 5 1018.9 - 0.0
19/06:30pm 14.0 11.2 3.1 48 4.9 SSW 7 9 4 5 1018.7 - 0.0
19/06:00pm 15.2 12.3 2.4 42 5.7 SSW 7 9 4 5 1018.5 1018.5 0.0
19/05:30pm 16.3 12.1 1.6 37 6.5 SSW 13 17 7 9 1018.3 - 0.0
19/05:00pm 16.9 13.2 2.3 37 6.6 S 11 19 6 10 1018.4 - 0.0
19/04:30pm 17.4 12.7 0.8 32 7.3 SW 15 24 8 13 1018.5 - 0.0
19/04:00pm 17.3 13.5 1.6 34 7.0 SSW 11 17 6 9 1018.9 - 0.0
19/03:30pm 17.7 12.7 1.3 33 7.3 SW 17 22 9 12 1019.0 - 0.0
19/03:00pm 17.3 12.4 2.0 35 6.9 SSW 17 24 9 13 1019.1 1019.0 0.0
19/02:30pm 17.1 13.0 2.3 37 6.7 S 13 35 7 19 1019.2 - 0.0
19/02:00pm 17.1 12.9 1.9 36 6.8 SW 13 26 7 14 1019.5 - 0.0
19/01:30pm 16.9 11.9 1.3 35 6.9 SSW 17 24 9 13 1019.8 - 0.0
19/01:00pm 17.4 13.2 1.4 34 7.1 S 13 22 7 12 1020.2 - 0.0
19/12:30pm 16.3 11.3 1.6 37 6.5 SW 17 22 9 12 1020.8 - 0.0
19/12:00pm 16.0 11.0 1.1 36 6.5 SW 17 24 9 13 1021.4 1021.3 0.0
19/11:30am 16.1 12.0 2.2 39 6.2 SW 13 24 7 13 1021.7 - 0.0
19/11:00am 15.2 11.2 2.7 43 5.6 SSW 13 20 7 11 1022.1 - 0.0
19/10:30am 14.7 11.1 3.2 46 5.2 S 11 20 6 11 1022.2 - 0.0
19/10:00am 14.6 10.9 4.4 50 4.7 SSW 13 17 7 9 1022.3 - 0.0
19/09:30am 13.4 9.9 5.5 59 3.7 SSW 13 20 7 11 1022.4 - 0.0
19/09:00am 12.0 8.2 6.0 66 2.8 SSW 15 19 8 10 1022.3 1022.2 0.0
19/08:30am 9.9 6.0 5.5 74 2.0 SW 15 19 8 10 1022.2 - 0.0
19/08:00am 8.4 4.9 5.5 82 1.3 SW 13 19 7 10 1022.0 - 0.0
19/07:30am 6.8 3.6 5.0 88 0.8 SSW 11 13 6 7 1021.8 - 0.0
19/07:00am 6.1 3.2 4.7 91 0.6 SSW 9 11 5 6 1021.6 - 0.0
19/06:30am 6.3 3.8 4.7 89 0.7 SSW 7 11 4 6 1021.2 - 0.0
19/06:00am 5.7 3.1 4.3 91 0.6 S 7 9 4 5 1021.1 1021.0 0.0
19/05:30am 6.3 3.8 4.7 89 0.7 S 7 9 4 5 1021.0 - 0.0
19/05:00am 6.3 3.7 4.4 88 0.8 S 7 9 4 5 1020.7 - 0.0
19/04:30am 6.8 3.9 4.5 85 1.0 S 9 11 5 6 1020.6 - 0.0
19/04:00am 7.5 4.6 4.5 81 1.3 S 9 11 5 6 1020.5 - 0.0
19/03:30am 7.6 4.7 4.6 81 1.3 S 9 11 5 6 1020.5 - 0.0
19/03:00am 7.0 5.0 4.5 84 1.1 S 4 7 2 4 1020.6 1020.5 0.0
19/02:30am 7.5 5.2 4.8 83 1.2 S 6 7 3 4 1020.8 - 0.0
19/02:00am 8.5 5.9 4.4 75 1.8 S 7 9 4 5 1021.0 - 0.0
19/01:30am 7.8 5.3 4.9 82 1.3 S 7 9 4 5 1021.1 - 0.0
19/01:00am 8.9 6.4 4.6 74 1.9 S 7 9 4 5 1021.0 - 0.0
19/12:30am 9.0 6.5 5.0 76 1.8 S 7 9 4 5 1021.0 - 0.0
19/12:00am 9.7 6.9 5.0 72 2.1 S 9 11 5 6 1020.9 1020.8 0.0
 
Date/Time
EST
Temp
°C
App
Temp
°C
Dew
Point
Rel
Hum
%
Delta-T
°C
Wind Press
QNH
hPa
Press
MSL
hPa
Rain
since 9 am
mm
Dir
 
Spd
km/h
Gust
km/h
Spd
kts
Gust
kts
18/11:30pm 10.2 7.3 4.9 69 2.4 S 9 13 5 7 1020.9 - 0.0
18/11:00pm 10.8 7.5 4.6 65 2.8 S 11 15 6 8 1021.1 - 0.0
18/10:30pm 11.2 8.3 4.8 64 2.9 S 9 13 5 7 1021.1 - 0.0
18/10:00pm 11.7 8.8 4.7 62 3.2 S 9 13 5 7 1021.0 - 0.0
18/09:30pm 12.2 9.7 4.8 60 3.4 SSW 7 11 4 6 1020.7 - 0.0
18/09:00pm 12.8 9.9 4.5 57 3.8 SSW 9 13 5 7 1020.4 1020.3 0.0
18/08:30pm 13.6 10.2 3.9 52 4.4 S 11 15 6 8 1020.1 - 0.0
18/08:00pm 14.1 10.7 3.8 50 4.7 S 11 15 6 8 1019.9 - 0.0
18/07:30pm 14.5 11.5 4.3 50 4.7 SSW 9 13 5 7 1019.6 - 0.0
18/07:00pm 15.4 11.9 3.6 45 5.4 S 11 15 6 8 1019.3 - 0.0
18/06:30pm 16.5 12.9 3.2 41 6.1 S 11 17 6 9 1018.9 - 0.0
18/06:00pm 17.9 12.6 2.0 34 7.2 S 19 26 10 14 1018.5 1018.5 0.0
18/05:30pm 19.0 13.0 0.8 29 8.1 SW 22 32 12 17 1018.1 - 0.0
18/05:00pm 19.7 12.3 -0.4 26 8.8 SW 28 39 15 21 1017.8 - 0.0
18/04:30pm 20.2 13.6 2.0 30 8.4 SSW 26 41 14 22 1017.4 - 0.0
18/04:00pm 21.0 14.3 5.5 36 7.7 SW 30 44 16 24 1017.0 - 0.0
18/03:48pm 20.9 14.6 5.9 37 7.5 SSW 28 48 15 26 1017.0 - 0.0
18/03:30pm 21.2 15.7 7.4 41 7.1 SSW 26 35 14 19 1017.0 - 0.0
18/03:00pm 20.9 15.6 9.7 48 6.0 WSW 28 33 15 18 1016.8 1016.8 0.0
18/02:30pm 20.2 15.2 10.9 55 5.1 SW 28 39 15 21 1016.8 - 0.0
18/02:00pm 19.9 14.4 10.5 54 5.1 SW 30 41 16 22 1016.7 - 0.0
18/01:30pm 20.0 13.8 11.3 57 4.8 SW 35 44 19 24 1016.7 - 0.0
18/01:00pm 21.7 14.9 7.9 41 7.2 WSW 33 43 18 23 1016.8 - 0.0
18/12:30pm 22.1 15.6 9.0 43 7.0 WSW 33 43 18 23 1017.0 - 0.0
18/12:00pm 21.7 15.5 9.2 44 6.7 WSW 32 44 17 24 1017.5 1017.5 0.0
18/11:30am 21.1 15.1 10.7 51 5.7 WSW 33 48 18 26 1017.5 - 0.0
18/11:00am 21.2 16.2 10.8 51 5.7 WSW 28 39 15 21 1017.7 - 0.0
18/10:30am 20.2 15.4 10.4 53 5.3 WSW 26 35 14 19 1017.9 - 0.0
18/10:00am 19.7 14.1 10.2 54 5.1 WSW 30 37 16 20 1018.0 - 0.0
18/09:30am 18.8 14.1 9.1 53 5.1 W 24 32 13 17 1017.9 - 0.0
18/09:00am 17.2 13.5 9.6 61 4.0 WNW 19 24 10 13 1018.2 1018.2 0.0
18/08:30am 15.6 14.3 11.3 75 2.3 NNW 9 13 5 7 1017.9 - 0.0
18/08:00am 12.9 11.9 11.0 88 1.0 NNW 7 9 4 5 1017.8 - 0.0
18/07:30am 11.8 10.6 10.2 90 0.8 NNW 7 9 4 5 1017.8 - 0.0
18/07:00am 11.9 10.6 9.9 87 1.0 NNW 7 7 4 4 1017.6 - 0.0
18/06:30am 11.5 10.4 9.9 90 0.8 NNW 6 7 3 4 1017.4 - 0.0
18/06:00am 11.6 10.2 9.6 87 1.0 NNW 7 9 4 5 1017.4 1017.4 0.0
18/05:30am 10.8 9.4 9.4 91 0.7 NNW 7 7 4 4 1017.4 - 0.0
18/05:00am 9.9 7.9 8.7 92 0.6 NNW 9 9 5 5 1017.4 - 0.0
18/04:30am 10.2 8.6 8.8 91 0.7 NNW 7 7 4 4 1017.3 - 0.0
18/04:00am 10.8 9.3 9.0 89 0.9 NNW 7 9 4 5 1017.2 - 0.0
18/03:30am 10.9 9.4 9.1 89 0.9 NNW 7 9 4 5 1017.4 - 0.0
18/03:00am 11.2 9.8 9.4 89 0.9 NNW 7 9 4 5 1017.3 1017.3 0.0
18/02:30am 11.7 10.2 9.3 85 1.2 NNW 7 7 4 4 1017.6 - 0.0
18/02:00am 12.1 10.8 9.1 82 1.5 NNW 6 6 3 3 1017.8 - 0.0
18/01:30am 11.9 10.4 9.1 83 1.4 NW 7 9 4 5 1018.1 - 0.0
18/01:00am 12.3 10.9 9.5 83 1.4 NNW 7 9 4 5 1018.3 - 0.0
18/12:30am 13.1 11.6 9.1 77 2.0 NNW 7 9 4 5 1018.4 - 0.0
18/12:00am 12.9 11.5 9.4 79 1.8 NNW 7 7 4 4 1018.9 1018.8 0.0
 
Date/Time
EST
Temp
°C
App
Temp
°C
Dew
Point
Rel
Hum
%
Delta-T
°C
Wind Press
QNH
hPa
Press
MSL
hPa
Rain
since 9 am
mm
Dir
 
Spd
km/h
Gust
km/h
Spd
kts
Gust
kts
17/11:30pm 13.3 11.6 8.5 72 2.4 NW 7 9 4 5 1019.1 - 0.0
17/11:00pm 13.2 11.6 8.6 73 2.3 NW 7 9 4 5 1019.4 - 0.0
17/10:30pm 13.4 11.8 8.8 74 2.3 NW 7 9 4 5 1019.5 - 0.0
17/10:00pm 13.6 12.0 8.8 73 2.4 NW 7 7 4 4 1019.6 - 0.0
17/09:30pm 14.0 12.2 9.3 73 2.4 NW 9 11 5 6 1019.5 - 0.0
17/09:00pm 14.5 13.3 9.4 71 2.6 NW 6 9 3 5 1019.5 1019.4 0.0
17/08:30pm 14.9 13.4 9.2 68 2.9 NW 7 9 4 5 1019.4 - 0.0
17/08:00pm 15.4 13.6 9.6 68 3.0 NNW 9 9 5 5 1019.4 - 0.0
17/07:30pm 16.2 14.3 9.0 62 3.7 NNW 9 11 5 6 1019.2 - 0.0
17/07:00pm 18.1 16.0 8.4 53 5.0 NNW 9 9 5 5 1019.0 - 0.0
17/06:30pm 18.2 16.8 8.8 54 4.9 NW 6 7 3 4 1018.7 - 0.0
17/06:00pm 20.1 17.9 7.9 45 6.3 NNW 9 11 5 6 1018.5 1018.5 0.0
17/05:30pm 21.8 19.1 7.5 39 7.4 NNW 11 15 6 8 1018.4 - 0.0
17/05:00pm 23.6 20.4 5.3 30 9.2 N 11 17 6 9 1018.2 - 0.0
17/04:30pm 24.2 20.8 5.7 30 9.4 NNW 13 20 7 11 1018.3 - 0.0
17/04:00pm 24.0 20.1 5.4 30 9.4 NNW 15 24 8 13 1018.5 - 0.0
17/03:30pm 24.5 21.1 5.9 30 9.5 N 13 20 7 11 1018.7 - 0.0
17/03:00pm 24.5 20.1 5.0 28 9.8 NW 17 24 9 13 1019.0 1018.9 0.0
17/02:30pm 23.7 20.4 6.4 32 8.9 NNW 13 20 7 11 1019.2 - 0.0
17/02:00pm 24.2 20.9 6.6 32 9.1 N 13 20 7 11 1019.4 - 0.0
17/01:30pm 23.5 19.8 6.3 33 8.8 NNW 15 22 8 12 1019.7 - 0.0
17/01:00pm 23.6 20.4 7.0 34 8.6 NW 13 19 7 10 1020.1 - 0.0
17/12:30pm 23.4 19.4 6.7 34 8.6 N 17 24 9 13 1020.5 - 0.0
17/12:00pm 23.1 19.1 6.8 35 8.4 N 17 26 9 14 1020.9 1020.8 0.0
17/11:30am 22.6 19.1 7.4 37 7.9 N 15 20 8 11 1021.3 - 0.0
17/11:00am 21.9 18.1 7.4 39 7.5 NNW 17 20 9 11 1021.6 - 0.0
17/10:30am 21.1 17.5 8.5 44 6.6 NNW 17 20 9 11 1021.6 - 0.0
17/10:00am 19.8 16.8 9.4 51 5.5 N 15 19 8 10 1021.6 - 0.0
17/09:30am 18.2 16.1 9.9 58 4.4 N 11 15 6 8 1021.4 - 0.0
17/09:00am 17.0 15.3 10.0 63 3.7 ENE 9 13 5 7 1021.5 1021.4 0.0
17/08:30am 15.2 15.6 11.1 76 2.2 CALM 0 6 0 3 1021.5 - 0.0
17/08:00am 12.6 13.0 11.3 92 0.7 CALM 0 0 0 0 1021.2 - 0.0
17/07:30am 10.9 9.7 10.3 96 0.3 E 7 9 4 5 1020.9 - 0.0
17/07:00am 9.6 8.2 9.0 96 0.3 E 6 9 3 5 1020.7 - 0.0
17/06:30am 9.6 9.4 9.0 96 0.3 CALM 0 0 0 0 1020.5 - 0.0
17/06:00am 9.9 9.4 9.3 96 0.3 E 2 7 1 4 1020.4 1020.3 0.0
17/05:30am 9.8 9.3 9.2 96 0.3 E 2 9 1 5 1020.2 - 0.0
17/05:00am 10.1 10.0 9.5 96 0.3 CALM 0 0 0 0 1019.9 - 0.0
17/04:30am 10.3 10.2 9.5 95 0.4 CALM 0 0 0 0 1019.7 - 0.0
17/04:00am 10.6 10.5 9.6 93 0.5 CALM 0 0 0 0 1019.5 - 0.0
17/03:30am 11.0 11.0 9.8 92 0.6 CALM 0 0 0 0 1019.3 - 0.0
17/03:00am 11.3 11.3 9.9 91 0.7 CALM 0 0 0 0 1019.2 1019.1 0.0
17/02:30am 11.7 11.8 10.1 90 0.8 CALM 0 0 0 0 1019.3 - 0.0
17/02:00am 12.3 12.4 10.2 87 1.1 CALM 0 0 0 0 1019.4 - 0.0
17/01:30am 12.5 12.7 10.4 87 1.1 CALM 0 0 0 0 1019.4 - 0.0
17/01:00am 13.1 12.2 10.6 85 1.3 E 6 7 3 4 1019.4 - 0.0
17/12:30am 13.3 12.4 10.8 85 1.3 E 6 7 3 4 1019.5 - 0.0
17/12:00am 13.5 13.2 11.4 87 1.1 E 4 9 2 5 1019.6 1019.5 0.0
 
Date/Time
EST
Temp
°C
App
Temp
°C
Dew
Point
Rel
Hum
%
Delta-T
°C
Wind Press
QNH
hPa
Press
MSL
hPa
Rain
since 9 am
mm
Dir
 
Spd
km/h
Gust
km/h
Spd
kts
Gust
kts
16/11:30pm 13.5 12.0 10.4 81 1.6 E 9 13 5 7 1019.1 - 0.0
16/11:00pm 13.2 12.6 10.3 82 1.5 WSW 4 7 2 4 1019.6 - 0.0
16/10:30pm 13.2 12.5 10.1 81 1.6 WSW 4 9 2 5 1019.9 - 0.0

Other Formats:

Comma delimited format used in spreadsheet applications
http://www.bom.gov.au/fwo/IDV60801/IDV60801.94843.axf

JavaScript Object Notation format (JSON) in row-major order
http://www.bom.gov.au/fwo/IDV60801/IDV60801.94843.json